Погода в Мушаке

Россия / Удмуртская Республика     56°14′16″N   53°03′49″E
темп.,
°C
ветер,
м/с
пор.,
м/с
влажн.,
%
обл.,
%
осадки,
мм/ч
давл.,
гПа
погр.,
м
21 апреля, ср
ср2101:00+2юв22500 0.0 103120
04:00+1вюв33545 0.0 103137
07:00+3юв3951100 0.0 1031264
10:00+8ююв71135100 0.0 1030914
13:00+10ююв71131100 0.0 10281155
16:00+11ююв71134100 0.0 10271315
19:00+9ююв61239100 0.0 1027481
22:00+7ю41050100 0.0 1026404
22 апреля, чт
чт2201:00+5ю61578100 1.1 10261021
04:00+3ю71496100 4.1 1026786
07:00+3ю71396100 1.2 1026742
10:00+4ю61196100 1.6 1027730
13:00+4ююв61094100 0.1 1028692
16:00+4ююв61093100 0.3 1028564
19:00+4ю51096100 0.4 1028597
22:00+4ю5998100 0.4 1028436
23 апреля, пт
пт2301:00+3ююв4897100 0.0 1028345
04:00+3ю3697100 0.0 1028400
07:00+4ююв3695100 0.0 1028313
10:00+6ю4586100 0.0 1029506
13:00+8ю347596 0.0 1029686
16:00+11юв236476 0.0 10281067
19:00+9юв4775100 0.0 1028311
22:00+6в3686100 0.0 1027109
24 апреля, сб
сб2401:00+4в3891100 0.0 1026190
04:00+4всв4994100 0.0 1024269
07:00+5всв4890100 0.0 1022359
10:00+5всв3695100 0.9 1020215
13:00+6в4795100 0.8 1018369
16:00+6всв3696100 1.4 1016284
19:00+6в3896100 0.4 1015343
22:00+5в2498100 0.7 1013106
25 апреля, вс
вс2501:00+5в1198100 0.6 101220
04:00+5ююз2298100 1.3 101167
07:00+6ююв2497100 0.6 1010130
10:00+9ю577992 0.7 1009905
13:00+7ююз5791100 1.3 10091025
16:00+4зюз101791100 1.7 1011994
19:00+6з48795 0.0 1013348
22:00+4юз39865 0.0 1015160